Pontiac, IL

1:04 AM CDT on March 26, 2017 (GMT -0500)
Pontiac Municipal

Weather History for KPNT - January, 2013

Change the Weather History Date:

Tuesday, January 8, 2013

  Actual Average Record
Temperature  
Mean Temperature 36 °F -  
Max Temperature 44 °F 26 °F 62 °F (1907)
Min Temperature 28 °F 11 °F -11 °F (1970)
Degree Days  
Heating Degree Days 29    
Moisture  
Dew Point 29 °F    
Average Humidity 77    
Maximum Humidity 86    
Minimum Humidity 61    
Precipitation  
Precipitation 0.00 in - - ()
Sea Level Pressure  
Sea Level Pressure 30.12 in    
Wind  
Wind Speed 10 mph (South)    
Max Wind Speed 18 mph    
Max Gust Speed 23 mph    
Visibility 10 miles    
Events      
Averages and records for this station are not official NWS values.
T = Trace of Precipitation, MM = Missing Value Source: NWS Daily Summary

Daily Weather History Graph

Daily Weather History Graph

Search for Another Location

Airport or City:

Trip Planner

Search our weather history database for the weather conditions in past years. The results will help you decide how hot, cold, wet, or windy it might be!

Date:

Astronomy

Jan. 08, 2013 Rise Set
Actual Time 7:18 AM CST 4:44 PM CST
Civil Twilight 6:48 AM CST 5:14 PM CST
Nautical Twilight 6:14 AM CST 5:48 PM CST
Astronomical Twilight 5:41 AM CST 6:22 PM CST
Moon 3:51 AM CST (1/8) 1:46 PM CST (1/8)
Length of Visible Light 10h 26m
Length of Day
9h 25m
Waning Crescent, 13% of the Moon is Illuminated
Jan 8
Waning Crescent
Jan 11
New
Jan 18
First Quarter
Jan 26
Full
Feb 3
Last Quarter

Hourly Weather History & Observations

Time (CST) Temp. Windchill Dew Point Humidity Pressure Visibility Wind Dir Wind Speed Gust Speed Precip Events Conditions
12:15 AM 33.8 °F 25.3 °F 26.6 °F 75% 30.13 in 10.0 mi SSW 11.5 mph - N/A   Clear
12:35 AM 32.0 °F 24.2 °F 26.6 °F 80% 30.13 in 10.0 mi SSW 9.2 mph - N/A   Clear
12:55 AM 30.2 °F 21.9 °F 26.6 °F 86% 30.13 in 10.0 mi South 9.2 mph - N/A   Clear
1:15 AM 30.2 °F 22.6 °F 26.6 °F 86% 30.13 in 10.0 mi SSW 8.1 mph - N/A   Clear
1:35 AM 30.2 °F 23.4 °F 26.6 °F 86% 30.14 in 10.0 mi South 6.9 mph - N/A   Clear
1:55 AM 30.2 °F 24.3 °F 26.6 °F 86% 30.14 in 10.0 mi SSW 5.8 mph - N/A   Clear
2:15 AM 30.2 °F 24.3 °F 26.6 °F 86% 30.13 in 10.0 mi South 5.8 mph - N/A   Clear
2:35 AM 30.2 °F 25.4 °F 26.6 °F 86% 30.13 in 10.0 mi South 4.6 mph - N/A   Clear
2:55 AM 30.2 °F 23.4 °F 26.6 °F 86% 30.13 in 10.0 mi South 6.9 mph - N/A   Clear
3:15 AM 30.2 °F 23.4 °F 26.6 °F 86% 30.13 in 10.0 mi South 6.9 mph - N/A   Clear
3:35 AM 30.2 °F 23.4 °F 26.6 °F 86% 30.13 in 10.0 mi South 6.9 mph - N/A   Clear
3:55 AM 30.2 °F 25.4 °F 24.8 °F 80% 30.13 in 10.0 mi South 4.6 mph - N/A   Clear
4:15 AM 30.2 °F 25.4 °F 24.8 °F 80% 30.13 in 10.0 mi South 4.6 mph - N/A   Clear
4:35 AM 30.2 °F 24.3 °F 24.8 °F 80% 30.13 in 10.0 mi South 5.8 mph - N/A   Clear
4:55 AM 30.2 °F 24.3 °F 24.8 °F 80% 30.13 in 10.0 mi South 5.8 mph - N/A   Clear
5:15 AM 30.2 °F 24.3 °F 24.8 °F 80% 30.13 in 10.0 mi South 5.8 mph - N/A   Clear
5:35 AM 28.4 °F 21.2 °F 24.8 °F 86% 30.13 in 10.0 mi South 6.9 mph - N/A   Clear
5:55 AM 28.4 °F 21.2 °F 24.8 °F 86% 30.13 in 7.0 mi South 6.9 mph - N/A   Clear
6:15 AM 28.4 °F 21.2 °F 24.8 °F 86% 30.14 in 7.0 mi South 6.9 mph - N/A   Clear
6:35 AM 28.4 °F 21.2 °F 24.8 °F 86% 30.14 in 7.0 mi South 6.9 mph - N/A   Clear
6:55 AM 28.4 °F 20.4 °F 24.8 °F 86% 30.14 in 7.0 mi South 8.1 mph - N/A   Clear
7:15 AM 28.4 °F 20.4 °F 24.8 °F 86% 30.14 in 7.0 mi South 8.1 mph - N/A   Clear
7:35 AM 30.2 °F 23.4 °F 24.8 °F 80% 30.15 in 7.0 mi SSW 6.9 mph - N/A   Clear
7:55 AM 30.2 °F 22.6 °F 26.6 °F 86% 30.16 in 7.0 mi South 8.1 mph - N/A   Clear
8:15 AM 30.2 °F 22.6 °F 26.6 °F 86% 30.16 in 7.0 mi South 8.1 mph - N/A   Clear
8:35 AM 32.0 °F 25.6 °F 26.6 °F 80% 30.17 in 7.0 mi South 6.9 mph - N/A   Clear
8:55 AM 32.0 °F 24.8 °F 26.6 °F 80% 30.17 in 7.0 mi South 8.1 mph - N/A   Clear
9:15 AM 33.8 °F 27.0 °F 26.6 °F 75% 30.17 in 7.0 mi South 8.1 mph - N/A   Clear
9:35 AM 33.8 °F 27.0 °F 26.6 °F 75% 30.17 in 7.0 mi South 8.1 mph - N/A   Clear
9:55 AM 35.6 °F 29.9 °F 28.4 °F 75% 30.17 in 10.0 mi South 6.9 mph - N/A   Clear
10:15 AM 35.6 °F 29.2 °F 28.4 °F 75% 30.17 in 10.0 mi SSW 8.1 mph - N/A   Clear
10:35 AM 37.4 °F 29.8 °F 28.4 °F 70% 30.17 in 10.0 mi SSW 11.5 mph - N/A   Clear
10:55 AM 39.2 °F 32.0 °F 28.4 °F 65% 30.16 in 10.0 mi SSW 11.5 mph - N/A   Clear
11:15 AM 39.2 °F 32.0 °F 28.4 °F 65% 30.15 in 10.0 mi SSW 11.5 mph - N/A   Clear
11:35 AM 39.2 °F 32.0 °F 30.2 °F 70% 30.14 in 10.0 mi SSW 11.5 mph - N/A   Clear
11:55 AM 41.0 °F 34.7 °F 30.2 °F 65% 30.14 in 10.0 mi South 10.4 mph - N/A   Clear
12:15 PM 42.8 °F 36.2 °F 30.2 °F 61% 30.13 in 10.0 mi South 12.7 mph - N/A   Clear
12:35 PM 42.8 °F 36.6 °F 30.2 °F 61% 30.12 in 10.0 mi SSW 11.5 mph - N/A   Clear
12:55 PM 42.8 °F 36.6 °F 32.0 °F 66% 30.12 in 10.0 mi South 11.5 mph - N/A   Clear
1:15 PM 42.8 °F 36.6 °F 33.8 °F 70% 30.12 in 10.0 mi South 11.5 mph - N/A   Clear
1:35 PM 42.8 °F 37.5 °F 32.0 °F 66% 30.12 in 10.0 mi South 9.2 mph - N/A   Clear
1:55 PM 44.6 °F 38.4 °F 33.8 °F 66% 30.12 in 10.0 mi South 12.7 mph - N/A   Clear
2:15 PM 44.6 °F 38.8 °F 33.8 °F 66% 30.12 in 10.0 mi South 11.5 mph - N/A   Clear
2:35 PM 44.6 °F 38.4 °F 33.8 °F 66% 30.11 in 10.0 mi South 12.7 mph - N/A   Clear
2:55 PM 44.6 °F 38.1 °F 33.8 °F 66% 30.11 in 10.0 mi South 13.8 mph - N/A   Clear
3:15 PM 44.6 °F 38.4 °F 33.8 °F 66% 30.11 in 10.0 mi South 12.7 mph - N/A   Clear
3:35 PM 44.6 °F 38.4 °F 35.6 °F 71% 30.10 in 10.0 mi South 12.7 mph - N/A   Clear
3:55 PM 42.8 °F 37.0 °F 33.8 °F 70% 30.09 in 10.0 mi South 10.4 mph - N/A   Clear
4:15 PM 42.8 °F 36.6 °F 33.8 °F 70% 30.10 in 10.0 mi SSE 11.5 mph - N/A   Clear
4:35 PM 39.2 °F 33.0 °F 33.8 °F 81% 30.10 in 10.0 mi SSE 9.2 mph - N/A   Clear
4:55 PM 39.2 °F 33.0 °F 32.0 °F 75% 30.10 in 10.0 mi SSE 9.2 mph - N/A   Clear
5:15 PM 39.2 °F 32.0 °F 33.8 °F 81% 30.09 in 10.0 mi SSE 11.5 mph - N/A   Clear
5:35 PM 37.4 °F 29.3 °F 32.0 °F 81% 30.09 in 10.0 mi SSE 12.7 mph - N/A   Clear
5:55 PM 37.4 °F 30.8 °F 32.0 °F 81% 30.09 in 10.0 mi SSE 9.2 mph - N/A   Clear
6:15 PM 37.4 °F 28.9 °F 32.0 °F 81% 30.11 in 10.0 mi SSE 13.8 mph - N/A   Clear
6:35 PM 37.4 °F 28.2 °F 32.0 °F 81% 30.10 in 10.0 mi South 16.1 mph - N/A   Clear
6:55 PM 37.4 °F 28.2 °F 32.0 °F 81% 30.10 in 10.0 mi South 16.1 mph - N/A   Clear
7:15 PM 35.6 °F 26.2 °F 30.2 °F 81% 30.10 in 10.0 mi South 15.0 mph - N/A   Clear
7:35 PM 35.6 °F 26.6 °F 30.2 °F 81% 30.09 in 10.0 mi South 13.8 mph - N/A   Clear
7:55 PM 35.6 °F 26.2 °F 30.2 °F 81% 30.09 in 10.0 mi South 15.0 mph - N/A   Scattered Clouds
8:15 PM 35.6 °F 26.2 °F 30.2 °F 81% 30.09 in 10.0 mi South 15.0 mph - N/A   Mostly Cloudy
8:35 PM 37.4 °F 28.9 °F 30.2 °F 75% 30.09 in 10.0 mi South 13.8 mph 18.4 mph N/A   Mostly Cloudy
8:55 PM 37.4 °F 28.9 °F 30.2 °F 75% 30.10 in 10.0 mi SSW 13.8 mph - N/A   Overcast
9:15 PM 37.4 °F 28.2 °F 30.2 °F 75% 30.09 in 10.0 mi South 16.1 mph 19.6 mph N/A   Overcast
9:35 PM 39.2 °F 30.2 °F 32.0 °F 75% 30.09 in 10.0 mi South 17.3 mph - N/A   Overcast
9:55 PM 39.2 °F 30.2 °F 32.0 °F 75% 30.09 in 10.0 mi South 17.3 mph - N/A   Overcast
10:15 PM 39.2 °F 30.8 °F 32.0 °F 75% 30.09 in 10.0 mi South 15.0 mph 21.9 mph N/A   Overcast
10:35 PM 39.2 °F 29.8 °F 33.8 °F 81% 30.08 in 10.0 mi South 18.4 mph - N/A   Overcast
10:55 PM 39.2 °F 30.2 °F 33.8 °F 81% 30.08 in 10.0 mi South 17.3 mph - N/A   Mostly Cloudy
11:15 PM 39.2 °F 30.8 °F 33.8 °F 81% 30.07 in 10.0 mi South 15.0 mph - N/A   Scattered Clouds
11:35 PM 39.2 °F 30.5 °F 33.8 °F 81% 30.07 in 10.0 mi South 16.1 mph 21.9 mph N/A   Scattered Clouds
11:55 PM 39.2 °F 29.8 °F 33.8 °F 81% 30.06 in 10.0 mi SSW 18.4 mph 23.0 mph N/A   Scattered Clouds